Location: *
(44.1392°N, 4.8079°E)
Time: 22:28:39
(UTC+00:00)

Cosmos 1656 - Pass Details

Date: 21 June 2021
Orbit: 797 x 850 km, 71.1° (Epoch: 02 August)

Event Time Altitude Azimuth Distance (km) Brightness Sun altitude
Rises 03:19:47 0° 330° (NNW) 3,424 7.0 -6.2°
Reaches altitude 10° 03:22:19 10° 324° (NW) 2,485 6.2 -5.8°
Maximum altitude 03:27:45 48° 252° (WSW) 1,104 4.0 -5.1°
Drops below altitude 10° 03:33:09 10° 180° (S) 2,458 5.8 -4.3°
Sets 03:35:39 0° 175° (S) 3,383 6.5 -4.0°
